Regional Weather Roundup
Issued by NWS

Home | Current Version | Previous Version | Text Only | Print | Product List | Glossary On
Versions: 1 2 3 4 5 6 7 8 9 10 11 12 13 14 15 16 17 18 19 20 21 22 23 24 25 26 27 28 29 30 31 32 33 34 35 36 37 38 39 40 41 42 43 44 45 46 47 48 49 50
739
ASUS44 KBMX 282110
RWRAL

ALABAMA REGIONAL WEATHER ROUNDUP
NATIONAL WEATHER SERVICE BIRMINGHAM AL
400 PM CDT WED JUN 28 2017

NOTE: "FAIR" INDICATES FEW OR NO CLOUDS BELOW 12,000 FEET
WITH NO SIGNIFICANT WEATHER AND/OR OBSTRUCTIONS TO VISIBILITY.

THE REMARK "TC" DENOTES TEMPERATURE IN DEGREES CELSIUS.

ALZ001>011-014-016>018-020-282200-
NORTH ALABAMA

CITY           SKY/WX    TMP DP  RH WIND       PRES   REMARKS
MUSCLE SHOALS  SUNNY     88  60  38 SE7       30.05F
HUNTSVILLE     MOSUNNY   87  63  44 E6        30.06F
DECATUR        MOSUNNY   88  61  40 S7        30.06F
HALEYVILLE     NOT AVBL
GADSDEN        MOSUNNY   88  64  44 E9        30.07F
$$

ALZ012-013-022-023-030>036-040>044-282200-
WEST CENTRAL ALABAMA

CITY           SKY/WX    TMP DP  RH WIND       PRES   REMARKS
TUSCALOOSA     MOSUNNY   88  65  46 E8        30.03F HX  90
$$

ALZ015-024>027-033>036-040>044-282200-
CENTRAL ALABAMA

CITY           SKY/WX    TMP DP  RH WIND       PRES   REMARKS
BIRMINGHAM     MOSUNNY   88  60  38 E9G20     30.08F
MONTGOMERY     MOSUNNY   91  67  44 E8        30.04F HX  94
SHELBY CO ARPT SUNNY     87  63  44 MISG      30.06F
MAXWELL AFB    PTSUNNY   89  69  50 SE12      30.04F HX  93
GREENVILLE     FAIR      83  67  58 SE6       30.04F
$$

ALZ019-021-028-029-037-038-045>048-282200-
EAST CENTRAL ALABAMA

CITY           SKY/WX    TMP DP  RH WIND       PRES   REMARKS
ANNISTON       MOSUNNY   85  63  47 E7        30.07F
ALEXANDER CITY MOSUNNY   85  63  46 E9        30.08F
AUBURN         PTSUNNY   86  66  51 SE9       30.09F
$$

ALZ051>064-282200-
SOUTHWEST ALABAMA

CITY           SKY/WX    TMP DP  RH WIND       PRES   REMARKS
MOBILE         CLOUDY    82  72  71 S18G24    30.02F
BROOKLEY FIELD CLOUDY    84  77  79 SE9       30.03F HX  94
EVERGREEN      LGT RAIN  74  72  93 CALM      30.07R
$$

ALZ049-050-065>069-282200-
SOUTHEAST ALABAMA

CITY           SKY/WX    TMP DP  RH WIND       PRES   REMARKS
DOTHAN         CLOUDY    84  71  65 SE13      30.10S
OZARK          CLOUDY    84  72  67 E7        30.06R
TROY           PTSUNNY   85  70  60 SE8       30.06F
EUFAULA        PTSUNNY   90  68  48 SE9       30.05F HX  94
$$




USA.gov is the U.S. government's official web portal to all federal, state and local government web resources and services.